Regional Weather Roundup
Issued by NWS

Home | Current Version | Previous Version | Text Only | Print | Product List | Glossary On
Versions: 1 2 3 4 5 6 7 8 9 10 11 12 13 14 15 16 17 18 19 20 21 22 23 24 25 26 27
000
ASUS45 KBOU 160006
RWRCO

WEATHER ROUNDUP FOR COLORADO
NATIONAL WEATHER SERVICE DENVER/BOULDER CO
600 PM MDT TUE APR 15 2014

NOTE: "FAIR" INDICATES FEW OR NO CLOUDS BELOW 12000 FEET WITH NO
SIGNIFICANT WEATHER AND/OR OBSTRUCTIONS TO VISIBILITY.

COZ001>005-013-030-031-160100-
...NORTHWEST COLORADO...

CITY           SKY/WX    TMP DP  RH WIND       PRES   REMARKS
CRAIG          PTSUNNY   55  20  25 SW16G25   29.81F
HAYDEN         PTSUNNY   54  19  26 SW15G24   29.84F
MEEKER         MOSUNNY   57  16  20 SW15G24   29.83F
MOUNT WERNER   PTSUNNY   37  10  32 SW16G28   29.96S
STEAMBOAT SPGS PTSUNNY   52  12  20 SW17      29.83F
WALDEN         PTSUNNY   39  19  45 SW16G24   29.84F
$$

COZ006>008-011-160100-
...WEST CENTRAL VALLEYS...

CITY           SKY/WX    TMP DP  RH WIND       PRES   REMARKS
GRAND JUNCTION MOSUNNY   59  21  23 NW8       29.86F
MONTROSE       CLOUDY    62  11  13 W10       29.90F
EAGLE          MOSUNNY   55  16  21 W21G28    29.88F
RIFLE          MOSUNNY   60  17  18 W20       29.85F
DELTA          CLOUDY    64  16  15 CALM      29.87F
NUCLA            N/A     59   9  13 SW10G21   29.95S
$$

COZ017>023-064>068-160100-
...SOUTHWEST COLORADO...

CITY           SKY/WX    TMP DP  RH WIND       PRES   REMARKS
DURANGO        CLOUDY    58  -9   6 SW17G24   29.96F
CORTEZ         SUNNY     61   2   9 CALM      29.94F
PAGOSA SPRINGS CLOUDY    55  -3   9 SW12G18   29.99F
TELLURIDE      CLOUDY    46   5  18 SW8       30.03R
WOLF CREEK PAS NOT AVBL
$$

COZ009-010-012-014-032>034-037-058>063-160100-
...CENTRAL COLORADO...

CITY           SKY/WX    TMP DP  RH WIND       PRES   REMARKS
ASPEN          PTSUNNY   51  11  20 W8        29.92F
BUENA VISTA    CLOUDY    51   1  13 W6G30     29.89F
COPPER MTN       N/A     34  10  37 W22G38    30.00F HAZE    WCI  22
BERTHOUD PASS  FAIR      27  16  63 W37       29.95F WCI   9
COTTONWOOD PAS CLOUDY    45  -8  11 NW12G40   29.93F
GUNNISON       CLOUDY    50   7  17 W10G18    29.98F
KREMMLING      MOSUNNY   52   9  17 W16G22    29.87F
LEADVILLE      PTSUNNY   38   8  29 W9        29.96F
MONARCH PASS   PTSUNNY   28   9  43 W43G52    30.13F WCI  10
SALIDA         CLOUDY    56   4  12 W14G23    29.98S
SUNLIGHT       CLOUDY    36  19  51 SW3       30.01F
WILKERSON PASS PTSUNNY   34   5  29 W12G24    29.96S WCI  25
$$

COZ069>075-160100-
...SAN LUIS VALLEY/SANGRE DE CRISTO MOUNTAINS...

CITY           SKY/WX    TMP DP  RH WIND       PRES   REMARKS
ALAMOSA        CLOUDY    59  15  18 W20G31    29.89R
LA VETA PASS   CLOUDY    43  10  26 SW14G23   29.97F
SAGUACHE       PTSUNNY   52   3  14 NW23G32   29.91F
$$

COZ035-036-038>040-160100-
...NORTHERN COLORADO FRONT RANGE...

CITY           SKY/WX    TMP DP  RH WIND       PRES   REMARKS
DENVER INTL AP PTSUNNY   64  12  13 NW14      29.71F
DMNS CITY PARK   N/A     64  10  12 W16G24    29.70F
AURORA         PTSUNNY   63  14  15 NW8       29.73F
FRONT RANGE AP MOSUNNY   64  14  14 CALM      29.73F
ERIE MUNI ARPT MOSUNNY   64  12  13 E7        29.71S
BOULDER MUN AP MOSUNNY   63  18  17 E7        29.70F
CENTENNIAL     PTSUNNY   62  13  14 CALM      29.73F
BROOMFIELD     PTSUNNY   63  12  14 W16G28    29.73F
FORT COLLINS   MOSUNNY   63  21  20 SW15      29.70F
LONGMONT       MOSUNNY   64  22  19 NW7       29.72S
$$

COZ041-046-047-076>085-087-088-160100-
...PIKES PEAK/PALMER DIVIDE AND SOUTHERN FOOTHILLS...

CITY           SKY/WX    TMP DP  RH WIND       PRES   REMARKS
COLO. SPRINGS  CLOUDY    61  13  15 S17       29.75F
A. F. ACADEMY  CLOUDY    60   8  13 W10       29.78S
ELLICOTT       NOT AVBL
FALCON         CLOUDY    57  13  17 SW6G16    29.80S
FORT CARSON    CLOUDY    63  13  14 SW18      29.74F
LIMON          PTSUNNY   60  19  20 S17G24    29.74F
MONUMENT HILL  CLOUDY    54  14  20 W20G28    29.79S
TRINIDAD       CLOUDY    63  22  20 E7        29.79F
$$

COZ042>045-048>051-090-091-160100-
...NORTHEAST COLORADO...

CITY           SKY/WX    TMP DP  RH WIND       PRES   REMARKS
GREELEY ARPT   SUNNY     64  25  22 S14       29.69F
AKRON          SUNNY     60  28  29 S14G24    29.71F
BURLINGTON     PTSUNNY   63  17  17 S20       29.76F
WRAY           SUNNY     67  18  15 SW15G22   29.71S
STERLING       SUNNY     68  27  21 SW13      29.67F
HOLYOKE        SUNNY     64  28  25 S14       29.69F
FORT MORGAN    SUNNY     64  20  18 S8        29.71F
$$

COZ086-089-092>099-160100-
...SOUTHEAST COLORADO...

CITY           SKY/WX    TMP DP  RH WIND       PRES   REMARKS
PUEBLO         PTSUNNY   68  19  15 SW14      29.72F
LA JUNTA       PTSUNNY   69  16  13 SE13      29.72F
LAMAR          PTSUNNY   67  20  16 S12       29.73F
SPRINGFIELD    NOT AVBL
$$



USA.gov is the U.S. government's official web portal to all federal, state and local government web resources and services.